McAlester, OK

8:03 AM CDT on September 18, 2019 (GMT -0500)
McAlester Regional

Weather History for KMLC - July, 2019

Change the Weather History Date:

Tuesday, July 23, 2019

  Actual Average Record
Temperature  
Mean Temperature 76 °F -  
Max Temperature 88 °F 92 °F 106 °F (1954)
Min Temperature 64 °F 69 °F 55 °F (1970)
Cooling Degree Days 11    
Growing Degree Days 26 (Base 50)    
Moisture  
Dew Point 62 °F    
Average Humidity 64    
Maximum Humidity 87    
Minimum Humidity 40    
Precipitation  
Precipitation 0.00 in - - ()
Sea Level Pressure  
Sea Level Pressure 30.13 in    
Wind  
Wind Speed 6 mph (NNE)    
Max Wind Speed 14 mph    
Max Gust Speed 18 mph    
Visibility 10 miles    
Events      
Averages and records for this station are not official NWS values.
T = Trace of Precipitation, MM = Missing Value Source: NWS Daily Summary

Daily Weather History Graph

Daily Weather History Graph

Search for Another Location

Airport or City:

Astronomy

Jul. 23, 2019 Rise Set
Actual Time 6:26 AM CDT 8:32 PM CDT
Civil Twilight 5:57 AM CDT 9:01 PM CDT
Nautical Twilight 5:23 AM CDT 9:35 PM CDT
Astronomical Twilight 4:45 AM CDT 10:12 PM CDT
Moon 12:06 AM CDT (7/23) 12:26 PM CDT (7/23)
Length of Visible Light 15h 03m
Length of Day
14h 06m
Waning Gibbous, 63% of the Moon is Illuminated
Jul 23
Waning Gibbous
Jul 24
Last Quarter
Jul 31
New
Aug 7
First Quarter
Aug 15
Full

Hourly Weather History & Observations

Time (CDT) Temp. Heat Index Dew Point Humidity Pressure Visibility Wind Dir Wind Speed Gust Speed Precip Events Conditions
12:53 AM 72.0 °F - 63.0 °F 73% 30.11 in 10.0 mi North 5.8 mph - N/A   Partly Cloudy
1:53 AM 66.9 °F - 63.0 °F 87% 30.12 in 10.0 mi Calm Calm - N/A   Partly Cloudy
2:53 AM 68.0 °F - 63.0 °F 84% 30.12 in 10.0 mi North 4.6 mph - N/A   Mostly Cloudy
3:53 AM 68.0 °F - 63.0 °F 84% 30.12 in 10.0 mi NNE 3.5 mph - N/A   Partly Cloudy
4:53 AM 66.9 °F - 63.0 °F 87% 30.12 in 10.0 mi NNW 5.8 mph - N/A   Clear
5:53 AM 66.9 °F - 63.0 °F 87% 30.14 in 10.0 mi North 6.9 mph - N/A   Clear
6:53 AM 66.9 °F - 63.0 °F 87% 30.15 in 10.0 mi North 5.8 mph - N/A   Scattered Clouds
7:53 AM 71.1 °F - 63.0 °F 75% 30.16 in 10.0 mi North 8.1 mph - N/A   Clear
8:53 AM 73.0 °F - 64.0 °F 73% 30.17 in 10.0 mi North 9.2 mph - N/A   Clear
9:53 AM 77.0 °F - 64.0 °F 64% 30.18 in 10.0 mi NNE 8.1 mph - N/A   Clear
10:53 AM 80.1 °F 81.7 °F 64.0 °F 58% 30.17 in 10.0 mi NNE 11.5 mph - N/A   Scattered Clouds
11:53 AM 82.0 °F 83.4 °F 64.0 °F 54% 30.17 in 10.0 mi North 10.4 mph - N/A   Partly Cloudy
12:53 PM 82.0 °F 82.7 °F 61.0 °F 49% 30.16 in 10.0 mi ENE 8.1 mph - N/A   Mostly Cloudy
1:53 PM 84.9 °F 84.4 °F 59.0 °F 41% 30.15 in 10.0 mi NNE 6.9 mph - N/A   Clear
2:53 PM 86.0 °F 85.4 °F 59.0 °F 40% 30.13 in 10.0 mi NNE 13.8 mph 18.4 mph N/A   Scattered Clouds
3:53 PM 86.0 °F 85.4 °F 59.0 °F 40% 30.12 in 10.0 mi NNE 11.5 mph - N/A   Scattered Clouds
4:53 PM 84.9 °F 84.4 °F 59.0 °F 41% 30.11 in 10.0 mi NNE 9.2 mph - N/A   Partly Cloudy
5:53 PM 86.0 °F 85.7 °F 60.1 °F 41% 30.10 in 10.0 mi North 9.2 mph - N/A   Partly Cloudy
6:53 PM 84.0 °F 84.0 °F 60.1 °F 44% 30.09 in 10.0 mi NNE 10.4 mph - N/A   Partly Cloudy
7:53 PM 82.0 °F 82.4 °F 60.1 °F 47% 30.09 in 10.0 mi North 6.9 mph - N/A   Partly Cloudy
8:53 PM 75.9 °F - 60.1 °F 58% 30.09 in 10.0 mi North 4.6 mph - N/A   Partly Cloudy
9:53 PM 75.0 °F - 60.1 °F 60% 30.11 in 10.0 mi North 6.9 mph - N/A   Scattered Clouds
10:53 PM 69.1 °F - 61.0 °F 75% 30.13 in 10.0 mi NNE 3.5 mph - N/A   Scattered Clouds
11:53 PM 64.9 °F - 61.0 °F 87% 30.14 in 10.0 mi Calm Calm - N/A   Partly Cloudy